Location: Doschendorf
(50.0069°N, 11.0602°E)
Time: 00:12:47
(UTC+00:00)

Meteor 2-10 Rocket - Pass Details

Date: 17 November 2019
Orbit: 734 x 884 km, 81.2° (Epoch: 05 December)

Event Time Altitude Azimuth Distance (km) Brightness Sun altitude
Rises 16:09:53 0° 198° (SSW) 3,151 7.3 -6.7°
Reaches altitude 10° 16:12:12 10° 200° (SSW) 2,234 6.6 -7.0°
Maximum altitude 16:17:10 69° 284° (WNW) 796 3.8 -7.8°
Drops below altitude 10° 16:22:16 10° 8° (N) 2,290 5.7 -8.5°
Sets 16:24:40 0° 11° (N) 3,237 6.4 -8.9°
